Location: Newark
(48.4472°N, 1.4892°E)
Time: 10:29:24
(UTC+00:00)

Transit 4A - Visible Passes

Search period start: 17 January 2021 00:00
Search period end: 27 January 2021 00:00
Orbit: 864 x 981 km, 66.8° (Epoch: 17 January)

Date Brightness Start Highest point End Pass type
(mag) Time Alt. Az. Time Alt. Az. Time Alt. Az.
17 Jan 9.9 03:19:04 23° NE 03:19:04 23° NE 03:22:34 10° E visible
17 Jan 7.9 05:02:37 41° NNW 05:04:58 80° NE 05:11:01 10° SE visible
17 Jan 9.1 06:46:10 10° WNW 06:50:36 21° WSW 06:54:58 10° SSW visible
18 Jan 9.6 03:28:42 28° ENE 03:28:42 28° ENE 03:32:37 10° E visible
18 Jan 7.8 05:12:15 44° NW 05:14:17 76° WSW 05:20:17 10° SSE visible
18 Jan 9.5 06:56:29 10° WNW 06:59:33 14° W 07:02:35 10° SW visible
18 Jan 10.4 20:17:42 10° SSW 20:17:44 10° SSW 20:17:44 10° SSW visible
19 Jan 9.3 03:38:26 33° ENE 03:38:26 33° ENE 03:42:32 10° ESE visible
19 Jan 8.0 05:22:00 43° WNW 05:23:31 54° WSW 05:29:20 10° SSE visible
19 Jan 9.8 18:43:07 10° SSE 18:44:26 14° SE 18:44:26 14° SE visible
19 Jan 10.1 20:26:58 10° SW 20:28:02 16° SW 20:28:02 16° SW visible
20 Jan 9.1 03:48:16 38° E 03:48:16 38° E 03:52:17 10° ESE visible
20 Jan 8.3 05:31:50 36° W 05:32:40 38° WSW 05:38:08 10° S visible
20 Jan 9.2 18:51:20 10° SSE 18:54:44 25° SE 18:54:44 25° SE visible
20 Jan 9.9 20:36:26 10° SW 20:38:19 20° SW 20:38:19 20° SW visible
21 Jan 9.0 03:58:13 38° ESE 03:58:13 38° ESE 04:01:52 10° SE visible
21 Jan 8.8 05:41:47 27° WSW 05:41:47 27° WSW 05:46:39 10° SSW visible
21 Jan 8.5 18:59:57 10° S 19:04:58 40° SE 19:04:58 40° SE visible
21 Jan 9.8 20:46:04 10° WSW 20:48:33 24° WSW 20:48:33 24° WSW visible
22 Jan 9.1 04:08:16 32° SE 04:08:16 32° SE 04:11:16 10° SSE visible
22 Jan 9.3 05:51:50 18° WSW 05:51:50 18° WSW 05:54:42 10° SW visible
22 Jan 9.7 17:28:31 10° ESE 17:29:59 11° E 17:31:28 10° E visible
22 Jan 8.0 19:08:49 10° SSW 19:15:05 59° ESE 19:15:07 59° ESE visible
22 Jan 9.9 20:55:53 10° WSW 20:58:42 24° W 20:58:42 24° W visible
23 Jan 9.5 04:18:24 23° SSE 04:18:24 23° SSE 04:20:28 10° SSE visible
23 Jan 9.4 17:35:05 10° SE 17:38:55 17° ESE 17:41:37 13° ENE visible
23 Jan 7.8 19:17:57 10° SSW 19:24:22 81° ESE 19:25:11 68° ENE visible
23 Jan 10.0 21:05:51 10° W 21:08:45 23° WNW 21:08:45 23° WNW visible
24 Jan 9.9 04:28:37 14° S 04:28:37 14° S 04:29:25 10° S visible
24 Jan 9.1 17:42:57 10° SSE 17:47:54 24° ESE 17:51:34 15° ENE visible
24 Jan 8.0 19:27:16 10° SW 19:33:42 77° NW 19:35:09 55° NNE visible
24 Jan 10.2 21:15:58 10° W 21:18:42 20° WNW 21:18:42 20° WNW visible
25 Jan 8.7 17:51:20 10° S 17:56:58 34° ESE 18:01:26 15° NE visible
25 Jan 8.4 19:36:48 10° SW 19:43:07 58° NW 19:44:59 43° N visible
25 Jan 10.3 21:26:12 10° WNW 21:28:33 17° NW 21:28:33 17° NW visible
26 Jan 8.3 18:00:03 10° S 18:06:08 48° ESE 18:11:11 15° NE visible
26 Jan 8.9 19:46:31 10° WSW 19:52:37 44° NW 19:54:44 34° N visible
26 Jan 10.5 21:36:29 10° WNW 21:38:17 15° NW 21:38:17 15° NW visible
